Theta_e
328 326 327 330 330 331 330 329 331 331 334 335 334 337 340 339 337 335 334 331 330 332 330 330 331 331 329 328 328 329 329 329 330 330 330 332 334 334 333 332 332 331 331 331 330 329 329 328 328 328 327 325 324 324 324 323 323 322 322 321 321 321 321 320 320 320 320 320 320 321 321 320 320 320 319 319 319 319 319 318 318 318 318 318 318
327 326 324 328 331 331 332 331 330 331 332 333 333 335 339 338 336 334 332 331 330 331 330 330 329 330 329 329 328 328 330 328 328 328 329 331 332 331 329 328 328 328 328 328 328 328 326 327 327 328 327 325 324 324 323 323 322 321 321 320 320 320 320 320 320 320 320 319 319 319 320 320 320 320 319 319 318 318 318 318 318 318 318 317 317
328 327 328 326 329 331 331 332 329 330 333 333 335 335 336 337 335 334 333 331 331 331 330 331 331 328 329 329 329 330 329 330 328 327 326 328 330 329 325 324 323 324 324 325 326 327 327 326 326 325 325 325 325 325 324 323 322 320 320 320 320 320 320 320 319 319 319 319 319 319 319 319 319 318 318 318 318 317 317 317 317 317 316 317 316
329 328 328 326 327 328 331 332 331 331 333 333 332 336 336 334 334 336 335 335 333 331 332 330 331 329 329 328 330 330 329 328 327 325 325 325 324 324 324 321 321 320 321 323 324 325 326 326 326 325 324 324 324 324 323 323 322 321 320 320 319 319 319 319 318 317 318 319 318 318 318 318 318 318 318 318 317 317 316 317 317 317 317 316 316
328 328 327 325 326 328 329 332 332 333 334 334 333 335 336 335 336 336 335 335 334 333 331 333 332 331 330 330 331 329 329 328 329 326 323 322 320 319 318 321 321 322 323 325 325 325 325 325 325 325 325 325 325 324 324 323 322 322 319 318 318 318 317 318 319 317 317 318 318 318 318 318 318 318 317 317 317 317 316 316 316 316 316 316 316
327 328 326 325 327 328 329 329 332 334 333 335 332 332 333 334 334 334 334 334 333 333 330 330 330 331 331 330 330 331 330 328 327 325 322 320 319 317 315 316 319 321 323 324 324 325 324 324 323 322 323 323 323 323 324 323 323 322 320 317 317 318 317 317 318 318 317 316 317 318 318 317 317 317 317 316 316 316 316 316 315 315 315 315 316
327 326 324 324 324 325 328 329 333 333 332 332 332 333 334 333 332 332 335 333 331 330 330 331 329 330 330 332 330 329 330 328 326 323 321 320 319 315 316 315 316 320 320 318 321 322 322 321 320 320 321 322 321 322 322 322 322 322 321 318 317 316 317 316 316 317 317 316 316 316 317 317 317 316 316 316 316 316 315 315 315 315 315 314 314
326 325 326 324 322 324 326 330 332 332 332 332 334 331 332 334 334 332 332 330 331 331 333 332 331 329 331 331 330 330 330 329 326 322 322 321 319 317 316 316 317 317 319 319 320 320 319 319 317 316 318 319 320 321 321 320 320 319 319 319 318 316 316 316 316 315 315 316 317 316 316 316 317 316 316 316 316 316 315 315 315 315 314 315 314
325 324 325 325 322 325 326 331 332 330 332 333 332 332 332 333 335 334 334 331 330 330 333 335 332 332 333 330 329 331 329 329 326 324 321 318 318 315 316 314 315 317 319 319 321 320 318 317 317 316 315 315 317 318 319 319 319 319 319 319 318 317 315 315 315 315 315 315 316 316 316 316 316 316 316 316 316 316 316 315 315 315 315 315 314
325 324 325 324 324 325 327 330 329 331 331 332 332 333 332 335 335 335 335 334 331 331 332 333 331 330 331 328 330 330 329 330 329 325 323 318 318 316 316 317 317 315 316 318 318 319 317 317 317 316 315 313 313 315 316 316 317 317 317 318 318 318 316 315 314 314 314 315 315 316 316 316 316 316 316 316 316 316 316 315 315 315 316 315 314
324 324 325 323 323 325 328 329 329 329 331 331 333 333 333 335 334 335 336 334 334 333 334 333 329 328 327 329 330 329 331 329 328 325 325 320 317 315 314 317 315 315 318 316 314 316 318 319 318 317 314 312 312 312 313 313 314 315 316 317 317 318 318 316 315 314 314 314 314 315 315 315 316 316 316 316 316 316 315 315 315 316 315 315 314
323 324 324 324 325 326 328 329 327 328 329 329 329 331 333 335 335 332 334 334 335 336 336 333 329 330 329 328 328 329 328 328 327 324 325 321 319 318 316 315 317 316 316 316 316 313 315 316 318 316 313 312 311 310 311 311 312 312 313 315 315 316 316 316 315 314 314 314 314 313 314 314 315 315 315 315 315 316 316 315 315 315 315 315 314
322 322 324 323 327 328 329 327 327 326 327 330 332 332 335 336 335 335 332 331 330 333 333 333 328 327 329 327 328 328 329 327 324 325 323 322 321 319 319 317 317 315 317 317 315 315 315 316 316 317 317 312 312 313 311 310 310 310 311 312 314 313 313 314 314 314 313 313 314 313 314 314 314 314 314 314 315 315 315 315 315 315 315 315 315
323 324 325 324 326 327 327 327 327 327 328 330 333 333 334 333 333 331 331 329 329 329 328 329 325 323 322 323 324 326 329 328 324 323 324 323 323 321 321 316 315 316 318 317 317 314 313 315 316 316 315 317 317 313 313 311 310 309 310 311 313 314 313 313 314 313 313 313 314 313 313 313 314 314 314 314 315 315 315 315 315 315 315 315 314
321 323 323 324 326 327 328 329 328 329 330 331 333 333 333 332 333 329 327 328 328 330 330 331 323 325 326 322 318 318 323 324 326 324 322 323 323 320 319 317 316 316 317 317 317 316 314 313 313 314 315 315 314 314 315 316 313 310 309 310 312 313 313 313 313 314 314 314 314 314 314 314 314 315 314 314 315 315 316 317 317 316 315 314 314
320 320 320 323 328 328 329 328 329 331 327 327 329 328 333 332 331 330 329 326 325 327 330 333 329 324 317 319 320 318 313 319 322 322 323 323 322 321 319 317 317 315 317 314 315 317 317 315 313 314 316 315 316 315 315 315 311 309 309 310 309 309 311 312 313 313 315 315 315 314 314 314 315 316 316 316 316 316 317 318 317 317 316 316 315
321 321 320 321 325 328 327 328 328 328 329 327 327 327 328 328 329 330 329 326 324 327 331 331 331 329 323 318 317 314 313 316 320 319 322 320 320 320 320 318 317 316 315 314 314 316 315 314 315 315 316 316 316 315 316 315 313 313 313 311 309 309 309 311 313 315 316 316 315 315 314 315 315 316 316 316 316 317 316 316 315 315 315 315 315
320 320 321 321 323 326 328 326 327 327 327 328 327 326 327 326 327 329 328 328 326 327 326 331 331 331 330 328 325 317 315 317 315 311 323 321 319 319 319 319 319 317 317 315 314 313 316 316 316 315 316 316 315 314 314 315 315 314 314 314 310 309 310 312 314 315 315 315 315 315 315 315 316 316 316 316 316 315 315 315 315 315 315 315 315
320 321 322 321 322 324 326 327 326 327 328 328 328 328 325 325 326 326 326 326 326 323 324 326 330 330 329 328 327 325 321 317 312 312 312 317 316 315 316 317 318 317 316 316 315 315 315 315 315 313 315 315 315 314 315 315 314 314 311 310 310 310 312 312 313 313 314 314 315 315 315 315 315 315 315 315 315 315 315 315 316 315 315 315 315
320 320 321 321 321 321 324 326 325 326 324 325 326 327 326 326 328 328 327 326 327 323 324 325 323 323 325 325 325 323 321 319 318 315 313 312 315 316 316 316 317 317 317 315 316 316 315 315 313 313 314 314 314 313 314 313 314 314 312 311 310 311 311 312 313 313 313 314 315 315 315 315 314 314 315 315 315 315 315 316 316 315 315 315 315
319 321 320 320 320 319 320 322 324 325 324 324 325 325 327 328 328 328 328 326 326 325 324 323 323 320 323 323 322 320 318 318 317 316 312 311 311 314 316 317 318 316 318 317 315 316 316 316 315 313 315 314 314 314 313 314 314 315 317 313 313 311 311 312 313 313 314 314 315 315 315 314 314 314 314 314 314 315 315 315 315 315 315 314 315
321 319 320 319 319 321 318 318 321 323 323 323 325 325 326 327 328 328 328 326 325 325 325 325 324 322 322 322 319 319 317 315 314 314 313 312 309 311 315 315 312 315 318 315 314 314 315 316 316 314 313 315 315 314 314 315 315 314 316 315 313 312 312 312 313 313 313 314 314 315 315 314 313 313 313 313 314 315 315 315 315 314 314 314 314
323 322 320 319 320 320 319 318 320 323 322 322 324 324 324 325 325 326 326 326 324 325 325 325 324 322 321 320 319 317 317 314 315 314 312 312 311 310 311 312 312 311 316 317 314 312 313 314 315 315 315 314 315 315 315 315 316 315 319 316 314 314 313 312 313 313 313 313 314 315 314 313 313 313 313 313 313 314 314 314 314 314 314 313 312
325 323 322 320 320 319 320 320 319 321 321 322 324 323 324 323 324 325 324 324 325 324 324 323 324 322 323 321 320 320 319 317 316 317 316 314 313 312 311 312 311 310 310 316 315 311 311 312 312 314 314 314 314 315 316 315 315 318 316 316 314 313 312 312 312 312 312 313 314 315 313 312 313 313 313 312 312 313 314 314 314 313 312 312 312
324 323 323 322 320 320 320 318 319 321 321 320 321 322 324 324 324 324 323 323 323 324 321 323 324 321 321 323 320 320 318 319 319 318 318 318 316 312 312 311 308 309 311 311 311 312 311 311 311 311 312 313 312 313 314 315 315 319 314 313 316 313 313 313 312 312 312 313 314 313 312 312 313 313 312 312 312 312 313 313 313 312 311 311 312
326 324 323 322 321 320 320 320 320 319 319 319 318 319 320 321 322 322 322 323 324 324 323 323 323 323 323 320 321 319 318 319 319 317 316 315 313 312 311 310 311 309 309 309 311 308 310 311 312 312 311 311 312 312 314 314 316 320 315 313 315 316 314 314 313 312 312 313 312 312 312 312 313 313 312 312 311 311 312 312 311 311 311 312 312
324 326 326 324 324 322 320 319 318 319 319 319 317 317 318 317 317 320 322 323 323 323 323 322 320 321 323 321 320 319 318 317 317 317 314 313 313 313 311 308 308 310 308 307 308 308 308 312 312 311 311 314 313 313 312 313 314 318 315 310 311 318 315 313 311 311 312 312 312 312 312 312 313 313 312 311 311 310 310 310 310 310 311 311 311
327 326 327 326 325 324 324 321 320 319 318 317 317 316 317 316 314 316 318 319 321 321 319 319 321 321 321 321 319 317 318 318 316 315 314 314 314 315 314 312 306 304 309 309 308 308 310 308 310 310 310 310 312 313 314 311 312 315 315 310 311 315 315 315 312 311 311 311 312 311 312 312 313 313 312 311 309 309 309 310 310 310 310 310 310
328 329 329 328 327 327 326 323 322 321 320 318 316 316 317 317 315 315 317 316 317 315 317 318 320 320 320 319 319 318 317 319 317 315 317 316 313 313 312 309 309 306 305 305 308 309 310 309 306 309 310 311 311 312 311 310 312 311 310 310 311 314 315 310 312 311 311 311 311 311 312 312 312 312 311 309 308 308 309 310 310 310 309 309 308
329 329 329 329 328 327 327 326 325 324 322 320 318 316 317 318 317 316 315 316 317 317 318 318 319 320 319 318 318 315 316 317 316 317 316 317 313 311 311 310 310 308 308 305 307 311 310 311 309 307 310 310 310 310 311 310 315 309 309 310 313 315 313 309 309 310 312 311 310 310 310 311 311 311 310 309 308 308 309 309 309 308 307 306 306
330 329 329 327 328 327 328 327 327 325 324 322 321 319 318 318 318 316 316 317 316 315 317 317 316 317 317 316 316 315 317 317 317 316 315 314 314 311 310 312 310 311 310 307 305 309 312 310 311 310 309 310 309 310 309 309 310 308 309 311 310 312 313 312 308 308 308 308 309 310 310 309 309 309 309 308 307 307 307 308 306 305 305 304 304
329 329 328 328 328 327 327 326 326 326 324 323 323 321 321 320 319 318 317 317 314 314 315 316 314 314 316 314 314 314 315 316 315 314 313 313 314 310 310 311 311 312 311 308 306 306 313 311 310 312 310 311 310 308 309 309 309 310 310 310 311 316 311 312 311 307 306 305 306 306 307 309 309 309 309 307 306 306 306 305 303 302 302 302 303
328 328 327 327 327 328 326 325 325 326 326 325 324 324 322 321 320 320 319 317 314 313 315 316 314 314 313 312 312 313 315 315 314 314 312 311 311 312 312 311 311 312 310 309 306 307 310 314 313 309 311 311 308 309 308 309 310 310 309 311 312 312 312 313 313 309 306 305 304 304 304 305 307 307 307 305 304 305 305 303 302 301 301 302 303
328 326 327 327 327 327 326 325 326 325 325 325 326 325 323 323 322 320 320 319 318 315 315 313 314 313 314 312 310 312 314 313 314 311 311 310 309 311 310 309 310 310 313 309 308 306 307 312 313 313 309 311 307 310 309 310 310 310 310 312 312 312 311 313 313 313 306 306 304 304 303 303 303 303 305 305 304 302 301 301 301 301 300 300 301
327 327 326 326 326 326 326 327 326 326 326 326 326 325 325 324 323 323 321 321 320 319 317 315 313 314 314 314 313 313 315 315 315 313 313 311 311 309 310 311 311 311 311 311 309 307 307 309 313 313 312 309 310 309 309 310 311 311 310 310 311 311 311 313 313 314 309 306 305 304 303 303 303 302 302 303 302 302 301 301 300 300 299 300 300
325 327 326 325 325 327 326 326 326 326 326 326 326 326 325 325 325 324 323 323 321 321 320 319 318 316 315 315 315 314 314 315 315 313 313 313 313 312 310 311 312 311 312 312 312 310 309 308 312 311 313 311 311 311 310 310 310 310 310 310 310 309 309 310 312 313 310 305 305 304 303 303 302 302 301 301 301 301 301 301 300 300 300 300 300
326 325 326 326 325 325 326 325 325 325 326 326 326 326 327 327 326 325 325 324 323 322 322 321 321 320 319 318 318 318 316 315 317 314 313 314 313 313 312 312 312 314 313 313 313 313 311 310 311 313 315 313 313 314 313 311 311 310 310 310 309 309 310 310 311 312 312 303 305 303 303 303 303 302 301 301 301 301 301 300 300 300 300 300 300
327 326 326 325 323 322 323 325 325 325 325 325 325 326 326 326 327 326 326 326 324 323 323 323 322 322 321 321 321 321 320 319 319 319 318 317 317 316 316 316 316 316 316 316 315 315 313 312 313 313 316 314 315 314 314 313 312 310 310 311 312 311 311 311 311 311 314 312 311 309 304 303 302 301 302 301 300 300 300 300 300 301 301 300 300
325 326 326 325 325 323 323 324 325 325 325 324 325 325 325 325 325 325 326 326 325 325 324 324 323 323 323 322 323 323 322 322 321 321 321 321 320 320 320 319 319 319 317 317 316 316 315 314 314 315 315 317 318 315 316 316 314 312 311 310 310 312 312 312 312 313 312 312 310 309 309 309 307 307 302 300 301 300 300 301 302 302 301 301 300
325 324 325 325 326 324 325 324 325 326 325 324 325 325 325 325 325 325 326 326 325 325 325 325 325 324 324 324 323 323 323 324 324 324 324 323 323 323 323 322 321 320 319 318 318 317 316 316 315 315 316 316 317 317 316 316 314 312 312 310 309 310 312 314 314 313 312 311 311 310 308 306 305 305 303 303 302 302 302 303 303 302 302 302 302
326 326 325 325 324 324 324 324 323 324 324 324 323 325 325 324 324 324 324 324 325 325 325 324 325 324 324 324 324 324 325 322 320 321 322 322 324 324 325 324 323 322 321 320 319 318 318 317 316 317 316 315 316 317 316 314 312 312 314 314 312 312 311 310 311 314 313 311 310 310 310 311 309 310 309 307 307 305 305 303 304 305 303 302 301
327 327 326 324 323 324 324 324 324 323 323 324 325 319 319 325 324 323 323 324 324 324 324 324 324 325 324 325 324 321 320 319 317 314 312 313 316 321 325 327 325 324 322 321 319 319 318 316 314 315 315 315 316 317 316 317 318 318 315 314 312 313 313 310 310 312 314 312 309 308 309 311 310 310 310 310 311 311 311 310 307 305 304 302 301
325 328 326 325 324 323 323 324 324 324 324 323 317 308 307 311 323 324 323 324 324 324 323 323 323 324 325 325 326 324 322 318 320 311 309 308 307 308 309 313 319 325 325 322 321 321 319 317 317 316 315 315 317 319 319 319 320 317 316 315 312 312 310 307 305 310 315 314 309 307 308 312 313 310 310 310 311 312 311 311 304 299 300 301 300
325 328 328 326 325 325 324 323 324 324 325 321 308 306 306 305 312 325 324 323 324 324 324 323 323 324 324 325 326 325 326 327 326 324 315 308 305 304 304 305 305 306 309 320 323 322 321 318 317 318 317 317 318 320 320 320 318 317 314 313 311 309 309 308 307 305 311 313 309 307 307 311 312 311 310 310 311 312 311 305 299 301 300 299 299
326 325 324 326 325 326 325 324 324 324 325 315 305 305 304 303 303 314 325 324 323 324 324 324 323 323 323 324 324 325 325 322 323 326 327 325 309 304 305 305 305 303 300 299 302 318 323 321 320 319 319 319 319 320 322 321 320 312 314 312 311 310 310 308 307 306 312 312 310 306 304 309 312 310 310 311 313 313 311 304 300 300 299 299 299
326 324 323 324 326 326 324 323 324 325 325 318 305 304 304 302 301 305 324 325 325 323 323 323 323 323 324 324 323 324 326 329 330 328 327 327 328 323 317 316 317 314 305 300 300 301 308 317 320 319 322 324 321 322 323 320 316 313 312 312 313 310 310 308 309 310 312 312 308 306 304 305 309 310 310 311 313 312 311 306 301 300 300 299 299
326 325 324 323 323 324 324 324 323 324 325 313 307 302 301 301 301 302 322 325 325 325 325 325 325 325 325 324 325 324 325 325 326 329 330 329 328 327 327 327 325 324 323 319 315 313 312 313 316 318 320 323 323 322 322 318 316 315 314 314 313 312 310 313 309 309 308 310 309 306 301 304 309 308 309 311 311 309 310 305 300 301 300 300 299
328 326 326 325 324 323 324 325 326 324 327 309 305 302 300 300 300 314 321 323 324 324 324 325 325 325 326 326 326 326 326 326 322 312 318 329 328 327 327 328 328 329 328 323 314 311 318 318 318 318 320 321 314 322 321 318 316 314 312 311 309 308 306 304 303 304 304 308 309 306 303 302 307 307 308 308 307 305 306 308 303 300 301 299 299
327 326 324 324 324 322 322 323 323 325 325 316 306 302 301 300 302 319 322 323 323 324 324 325 325 325 326 326 327 327 327 328 319 307 304 313 327 325 325 326 327 328 327 329 313 304 304 304 304 304 303 303 301 301 301 301 311 311 311 307 305 305 302 301 302 303 305 308 308 307 304 300 305 305 304 305 305 303 303 304 307 302 299 300 298
325 325 325 326 325 325 323 322 322 323 324 320 309 304 299 299 307 320 321 322 323 324 323 325 325 326 326 320 323 327 327 328 312 306 302 312 326 325 325 325 323 323 325 327 327 318 302 301 300 299 298 297 297 298 298 297 297 304 308 303 306 306 302 302 301 304 306 307 306 306 302 301 304 304 302 304 304 304 304 304 305 306 300 299 298
325 324 325 325 324 325 325 324 322 321 322 320 310 306 303 299 306 318 319 320 320 322 324 324 326 326 326 325 320 321 324 322 308 305 301 313 326 325 324 323 321 320 322 324 325 322 318 316 314 311 308 305 307 309 309 298 297 303 307 307 308 306 304 305 304 304 301 303 303 306 301 302 302 303 302 297 298 301 304 304 305 308 310 310 309
Wind_Speed
2 2 3 3 4 3 3 3 3 4 6 6 5 6 5 5 6 5 5 5 5 5 5 4 4 4 5 7 6 6 6 7 8 8 8 7 9 12 14 13 13 12 12 12 12 12 11 11 11 13 13 12 12 13 13 12 12 12 12 11 11 11 11 11 11 11 11 11 11 11 11 11 10 10 9 9 9 8 8 8 8 8 8 9 9
3 3 3 3 3 3 3 2 1 2 5 6 5 5 6 6 6 6 6 6 6 5 4 5 5 4 5 6 6 6 6 6 6 7 7 7 9 10 14 13 12 11 11 11 11 11 11 10 12 12 13 12 12 12 12 11 12 11 11 11 10 10 11 11 11 11 11 10 10 10 9 9 9 8 8 7 8 9 9 9 9 9 9 9 9
4 3 1 3 3 4 4 3 3 2 4 6 6 6 5 5 6 5 5 5 5 5 5 5 4 4 5 5 4 5 5 4 5 6 7 6 7 8 11 13 11 10 10 10 10 10 10 10 10 10 10 10 11 11 11 11 11 11 10 10 10 10 10 10 10 10 10 9 9 8 8 8 8 7 7 8 9 8 8 7 7 7 7 7 7
3 4 3 3 4 5 5 4 3 2 3 4 6 6 6 6 7 6 5 5 6 5 4 4 4 4 4 5 5 4 4 4 5 6 6 5 5 5 6 10 12 10 10 10 9 10 9 10 10 10 9 9 9 10 10 11 11 10 10 9 9 9 9 9 9 9 8 8 7 7 7 6 7 8 8 8 8 8 8 8 8 8 9 8 8
4 4 3 4 4 4 5 5 4 2 1 3 7 6 5 6 6 6 6 5 5 5 5 4 3 4 4 5 4 4 4 4 4 5 6 5 4 5 4 6 10 12 11 10 10 10 9 9 9 9 9 9 9 9 9 10 10 10 10 9 9 9 8 8 8 9 7 7 7 7 7 8 8 8 8 8 8 8 8 8 8 7 7 8 8
4 4 4 3 3 5 5 5 4 2 2 2 5 6 6 6 6 6 6 6 6 6 5 5 4 3 3 4 3 3 3 4 4 4 4 5 4 4 4 4 4 7 8 10 9 9 9 9 9 8 8 8 8 8 9 9 9 10 10 9 9 8 8 7 7 8 7 6 7 7 7 7 7 7 8 8 8 8 7 8 8 7 7 7 8
3 2 4 3 4 5 5 5 5 4 4 2 4 6 6 7 7 7 7 6 6 6 6 5 5 5 4 3 4 3 2 3 4 4 5 4 4 5 4 4 3 4 7 8 9 9 8 9 8 8 8 8 8 8 8 9 8 9 9 9 9 8 7 7 7 6 6 6 6 6 7 7 7 6 6 7 6 7 5 6 6 6 7 6 7
3 2 3 4 4 5 6 5 5 4 3 2 4 6 7 7 7 7 7 7 7 7 5 5 5 5 4 3 3 3 3 3 2 3 4 4 5 4 4 4 4 4 3 5 6 7 8 8 8 7 7 7 7 8 8 8 8 7 7 7 8 8 7 7 6 6 6 6 6 6 5 5 5 5 6 6 6 6 6 6 7 7 7 8 8
3 3 3 3 4 4 5 5 5 5 4 3 4 5 6 7 7 7 6 7 8 8 6 6 5 5 5 5 5 4 3 1 3 3 3 4 5 5 5 6 6 5 3 4 6 6 7 7 7 7 7 6 6 6 7 7 6 6 7 7 7 7 7 6 5 5 5 5 5 5 4 5 5 5 5 6 5 5 6 6 6 7 8 7 8
3 3 3 4 3 4 5 5 6 5 4 4 4 5 6 7 8 8 7 7 7 7 8 7 6 5 6 5 4 4 3 2 3 2 3 4 3 4 4 4 3 4 4 3 4 5 6 7 8 7 6 6 6 6 5 6 6 6 6 6 6 7 7 6 5 4 4 3 3 3 4 3 4 4 5 4 4 5 5 6 6 6 6 7 7
3 3 3 4 4 4 4 5 6 6 5 5 5 5 5 7 8 8 8 8 7 7 7 6 6 5 5 6 5 4 3 3 4 3 2 2 3 3 5 4 4 5 4 4 4 4 5 6 7 7 6 5 5 5 5 4 5 4 4 4 5 5 5 5 5 3 3 2 1 2 2 2 3 3 4 4 4 5 5 5 5 5 6 6 6
3 3 3 3 4 4 4 5 6 6 6 6 6 6 7 7 8 9 9 9 7 7 7 6 5 5 4 4 4 5 6 5 5 4 3 3 4 3 4 5 4 4 5 3 3 5 4 3 3 4 6 7 5 5 5 4 3 3 3 3 3 3 2 4 3 2 1 1 0 1 2 2 3 3 3 3 4 5 5 5 5 6 6 6 7
3 4 3 3 4 3 4 5 6 7 7 6 6 6 7 6 7 7 9 9 9 8 6 6 6 5 4 5 5 4 5 5 6 5 4 3 4 4 3 4 4 5 4 4 4 5 4 5 4 4 5 7 7 8 6 5 4 2 1 0 1 2 2 1 2 1 0 1 2 1 2 2 3 3 3 3 4 5 5 5 6 6 6 7 9
2 2 3 4 4 4 4 5 5 6 7 7 6 6 6 7 6 7 8 9 8 9 7 7 7 6 6 5 4 3 5 6 7 7 6 5 4 5 4 5 5 5 4 5 5 5 5 4 4 4 3 4 6 7 7 8 8 6 2 2 3 4 2 2 0 0 1 3 2 1 2 3 3 4 3 4 5 7 8 7 7 7 7 7 8
2 3 3 4 4 3 4 3 5 5 5 6 5 6 6 8 8 7 6 7 7 7 7 9 6 6 5 4 5 5 6 6 8 8 7 6 6 6 6 6 6 6 6 5 5 5 4 5 5 4 4 4 3 4 3 2 6 7 4 4 5 4 4 4 3 3 3 3 4 4 5 6 6 5 5 6 6 8 10 13 8 7 7 7 9
2 3 4 2 3 4 4 4 4 3 5 6 6 7 6 6 7 7 6 6 7 6 7 8 6 6 7 7 5 6 6 9 7 8 8 8 8 7 7 6 7 7 5 6 5 5 4 5 5 4 5 4 3 3 3 3 9 7 7 6 5 4 5 5 5 4 5 6 6 6 6 7 7 7 8 8 8 8 11 13 13 13 14 12 10
2 3 3 2 4 3 4 4 4 3 5 6 7 8 8 8 8 7 8 7 7 5 6 7 8 7 6 5 4 5 6 3 8 4 7 8 9 9 7 8 7 7 7 7 6 6 6 6 6 5 6 5 5 5 4 4 6 6 8 9 8 6 6 7 6 7 8 8 7 7 7 8 8 8 8 8 8 9 10 11 12 13 13 14 14
3 3 3 2 3 4 3 5 5 4 4 5 7 7 8 9 9 8 8 8 7 6 6 6 7 8 7 7 5 5 3 6 3 4 7 6 7 8 9 9 8 8 8 7 8 7 7 6 7 7 7 7 6 6 6 5 4 4 4 5 9 6 7 7 8 9 9 8 8 8 8 8 8 8 8 8 8 9 11 12 12 13 13 14 14
3 2 2 2 3 3 4 5 4 5 4 4 5 7 8 9 8 8 8 7 7 8 8 7 5 6 8 8 7 7 4 3 4 4 5 6 6 6 8 9 9 9 9 9 9 8 7 7 8 8 8 7 7 6 6 6 6 6 4 2 5 7 8 8 9 9 9 9 9 9 8 8 8 8 8 9 9 9 10 11 12 13 13 14 14
2 3 3 3 3 3 4 5 4 5 5 6 6 6 7 8 6 7 7 7 8 7 7 7 7 7 8 9 9 8 9 8 7 7 5 4 6 7 7 8 8 8 9 9 9 8 8 8 8 8 7 8 8 7 6 6 6 8 8 11 10 10 9 9 10 10 10 10 10 10 9 8 8 8 8 9 10 10 10 11 12 13 14 14 14
2 2 3 3 3 3 4 5 5 5 5 6 6 6 8 6 5 6 6 6 6 6 6 6 7 7 7 8 8 8 8 8 8 7 7 6 6 6 7 7 7 7 7 8 8 8 8 9 9 8 7 7 8 8 7 7 6 7 7 10 11 11 10 10 10 10 11 11 11 11 10 9 8 8 9 9 10 11 11 12 12 13 13 13 13
3 3 3 3 3 3 4 5 5 5 5 6 5 5 6 6 7 7 7 8 6 6 6 6 6 6 7 7 8 7 8 7 7 7 8 9 8 6 5 7 8 8 8 8 9 9 9 9 9 10 9 8 8 8 8 8 7 7 8 10 11 10 10 10 11 11 11 11 11 11 11 9 8 8 9 9 10 11 12 12 12 12 13 13 14
3 3 4 4 3 3 4 3 4 4 5 5 4 6 6 6 6 7 7 8 7 7 8 7 6 7 7 7 7 8 7 7 7 7 7 7 7 8 8 7 7 5 7 8 7 8 8 8 9 9 9 9 8 8 8 8 9 8 6 10 10 10 10 11 12 11 11 11 12 11 10 9 9 8 9 10 10 11 12 12 12 12 12 13 14
3 3 4 4 3 3 4 4 3 3 5 5 5 6 6 6 5 5 6 7 7 7 7 8 9 7 8 7 7 7 7 8 7 7 6 7 7 8 7 6 5 5 4 5 6 7 7 8 8 8 9 8 9 9 8 8 8 8 7 9 9 10 11 12 12 12 11 12 12 11 10 10 9 8 9 10 11 11 12 12 12 11 12 13 14
4 4 5 5 4 4 4 4 3 4 4 5 5 6 5 5 5 6 7 7 7 8 7 8 8 8 7 7 7 8 8 7 7 7 6 6 7 8 8 7 7 6 4 4 5 7 7 8 8 8 8 8 8 8 8 8 8 10 11 8 10 10 11 12 12 12 12 12 12 11 10 10 9 9 9 10 11 12 12 12 11 12 12 13 14
4 5 4 5 5 5 5 5 5 4 5 5 5 5 5 6 7 7 8 7 8 9 9 9 8 9 8 8 8 8 8 7 7 6 7 6 7 8 7 7 6 6 6 6 5 5 6 7 7 7 7 7 7 8 7 7 8 11 11 7 10 12 12 12 12 12 12 12 12 11 11 10 10 9 9 10 11 12 12 11 11 12 13 13 14
5 4 4 4 4 4 5 5 5 5 5 4 4 5 5 6 6 6 6 7 7 7 8 9 9 10 9 8 7 7 7 7 7 7 7 7 7 7 6 7 7 7 7 6 6 7 5 4 6 6 6 6 6 7 7 8 6 12 9 7 7 12 12 12 12 12 13 13 12 12 11 11 11 10 10 10 11 11 11 11 12 12 13 13 14
6 5 5 5 5 5 5 6 5 5 5 5 5 5 4 5 5 5 6 6 6 8 8 8 9 9 9 8 8 8 7 7 7 6 7 6 6 5 5 6 6 7 5 5 5 6 6 6 6 5 5 6 6 6 6 5 5 13 9 7 7 8 14 11 12 12 13 13 13 13 13 12 12 11 11 10 11 11 11 11 12 12 13 13 14
6 6 6 6 5 5 5 5 6 6 6 6 6 5 4 4 5 5 6 6 6 7 7 7 7 7 7 8 7 7 6 5 6 5 5 5 6 5 5 6 6 6 6 6 5 4 4 5 6 6 6 5 6 6 6 8 9 11 8 9 8 8 11 14 11 12 14 14 14 14 14 13 13 12 11 11 11 11 11 11 12 12 12 13 13
7 7 7 7 7 7 6 6 6 6 6 6 6 5 5 4 5 5 5 5 5 5 6 6 7 6 7 7 7 7 6 6 6 6 5 5 5 5 5 6 5 7 6 6 6 3 3 2 5 4 6 6 6 6 6 8 11 11 8 8 8 9 11 13 12 12 13 14 13 14 14 14 14 13 12 11 11 11 12 12 11 11 12 12 11
9 8 7 8 7 7 7 7 7 7 7 7 6 6 6 5 5 5 5 5 5 6 6 5 5 6 7 7 7 7 6 6 6 6 6 6 6 6 6 5 5 5 6 6 7 5 4 5 3 5 4 6 7 6 7 7 10 10 9 9 10 7 13 12 13 13 14 13 13 12 12 14 14 14 12 12 13 13 13 12 10 11 11 10 10
10 10 9 9 9 9 8 8 8 8 8 8 8 7 7 6 6 6 6 7 7 7 7 6 5 6 7 8 8 7 7 6 7 6 6 6 6 6 6 6 6 5 5 6 8 8 3 5 6 5 7 7 8 8 9 8 8 14 10 9 9 9 8 9 16 16 16 15 14 13 12 13 15 14 13 13 13 13 12 10 9 9 10 10 11
11 10 10 11 11 10 11 10 10 9 9 8 8 7 7 8 7 7 7 7 8 7 7 7 7 7 7 8 9 8 7 7 6 6 7 8 8 7 6 6 6 7 7 7 8 9 7 6 6 7 6 7 9 10 10 9 9 9 11 10 11 10 10 10 9 18 18 17 16 15 13 13 12 13 13 13 12 11 9 8 8 9 10 12 11
11 12 12 11 11 12 11 12 10 10 10 10 9 8 8 8 8 7 8 8 8 8 7 8 8 7 7 9 9 9 8 8 8 9 8 8 8 8 8 8 8 8 8 8 8 8 9 6 7 7 8 8 9 9 10 10 10 10 11 10 9 10 10 9 10 8 21 17 17 16 15 13 12 12 12 12 11 10 10 10 9 9 10 11 11
11 12 13 13 13 13 13 12 12 11 11 11 9 10 9 10 10 9 8 9 9 8 9 9 9 8 9 9 9 9 7 8 9 9 8 8 8 9 9 8 9 8 9 9 8 9 9 8 7 8 8 8 10 9 10 10 10 10 11 11 10 9 9 10 9 8 15 17 16 15 15 14 13 14 13 12 11 10 11 10 10 10 10 10 11
12 12 13 14 14 13 13 13 13 12 12 11 10 11 12 11 11 11 10 10 10 10 10 10 10 9 10 10 10 10 9 10 9 9 9 9 9 9 10 9 9 10 8 9 10 8 8 9 7 8 7 8 9 10 9 9 9 10 10 10 10 11 11 9 9 9 11 18 17 16 15 14 14 14 13 12 11 11 11 11 11 10 10 11 11
13 12 12 13 14 14 13 14 14 13 13 12 11 11 11 11 12 11 11 10 10 11 11 11 10 10 10 10 10 10 10 10 10 10 9 11 10 10 10 9 9 9 8 8 9 9 9 10 8 8 8 8 8 8 8 9 9 10 11 11 10 10 11 10 9 8 8 17 14 15 14 14 14 14 14 13 12 12 12 12 11 11 11 12 12
14 14 13 12 13 15 15 14 15 14 13 13 13 12 12 12 11 11 11 11 11 11 11 11 11 11 11 11 11 11 10 11 11 10 11 12 11 11 11 10 10 8 9 9 9 10 10 10 9 9 8 8 8 9 9 10 9 9 9 9 9 10 10 9 9 7 7 7 7 9 11 12 14 14 14 14 13 13 14 13 12 11 11 13 13
14 14 14 14 13 14 15 15 15 15 15 14 13 13 13 13 13 12 12 12 12 11 11 12 12 12 12 12 12 12 12 12 12 12 11 12 11 12 11 11 10 10 9 9 10 10 10 10 10 10 9 9 9 9 8 9 10 9 9 9 10 9 9 10 9 8 7 8 8 7 7 6 3 9 14 16 14 14 15 13 11 12 13 13 13
14 15 15 15 14 13 14 15 15 14 15 14 14 14 13 12 12 12 12 12 12 12 12 13 13 12 12 13 12 13 13 13 13 13 12 11 10 11 11 10 10 11 10 10 10 10 10 10 10 9 9 9 8 9 8 8 9 10 10 9 10 9 9 8 9 8 7 7 8 8 10 10 10 9 8 11 13 14 14 13 14 14 14 14 14
12 14 14 15 15 14 14 14 15 14 14 15 14 14 14 13 13 13 13 14 13 13 13 14 13 13 14 13 13 14 13 13 14 12 12 11 9 10 10 10 11 11 11 10 10 10 10 10 9 9 9 9 10 10 10 10 12 12 9 9 10 10 8 7 7 8 9 8 7 7 6 6 6 7 8 9 11 16 15 16 14 13 14 15 15
13 12 13 14 14 15 15 15 14 13 14 13 13 14 11 11 13 12 13 13 14 14 13 13 14 14 14 14 14 15 14 14 15 15 15 15 14 13 11 10 11 11 11 11 9 10 9 8 10 11 10 11 11 12 12 12 11 9 10 10 10 8 8 8 7 6 8 8 7 7 7 6 6 7 7 8 8 8 8 9 10 9 12 16 13
12 11 12 13 13 14 15 15 15 13 13 12 13 13 14 15 14 14 13 14 14 14 14 14 13 14 14 15 15 14 14 15 15 17 17 18 18 18 19 17 14 11 10 12 13 12 11 11 12 11 12 13 14 13 12 12 10 11 7 6 8 8 9 8 8 7 7 6 6 6 6 5 6 8 8 8 7 7 7 7 9 9 10 12 12
9 5 10 11 12 12 13 14 16 15 13 13 11 15 16 17 15 13 13 13 13 14 14 15 14 14 14 14 13 13 13 13 14 15 18 20 20 20 21 21 21 22 17 13 12 12 13 12 12 12 12 13 13 12 12 12 11 4 7 8 8 9 9 9 8 6 1 7 5 7 7 6 6 7 8 7 7 6 6 5 8 6 6 7 9
4 6 9 8 10 11 12 14 13 13 13 13 13 16 17 17 18 15 13 14 15 15 15 16 16 16 15 14 13 13 13 15 14 15 14 14 19 23 22 23 23 21 20 22 20 16 12 14 15 15 14 13 13 13 12 10 4 8 7 7 9 9 9 8 7 4 2 6 5 6 7 6 5 7 8 7 6 5 6 8 10 9 10 9 11
9 10 8 9 9 8 11 12 11 12 12 13 11 15 16 17 17 14 13 14 15 16 17 17 16 16 17 16 15 14 14 13 13 15 14 14 12 13 14 15 15 18 21 22 24 25 20 16 15 16 17 15 14 11 3 7 7 7 7 9 9 9 8 7 4 4 1 5 5 4 7 8 8 7 7 6 4 4 6 4 11 12 11 11 11
10 10 9 10 10 9 8 9 11 13 11 12 10 12 14 15 15 13 11 12 13 14 15 17 17 17 17 16 17 18 17 17 15 14 14 13 13 12 14 14 13 14 14 15 17 15 15 15 18 18 17 15 15 14 6 6 7 7 8 8 8 6 4 1 0 1 2 4 5 6 9 7 4 5 7 5 3 4 5 8 15 13 13 12 12
8 8 9 9 9 8 8 10 11 12 10 12 11 11 12 13 14 9 10 12 13 14 16 17 17 16 16 17 17 17 17 17 17 15 14 13 13 14 15 15 14 13 14 14 15 15 15 14 16 16 15 14 8 7 6 6 6 5 2 1 1 0 1 2 5 3 6 7 9 7 6 6 6 6 6 5 4 5 5 6 11 14 12 13 13
5 6 8 9 8 8 8 9 10 9 9 9 7 12 13 13 9 7 10 12 13 14 14 15 16 16 16 17 17 16 17 16 16 14 14 14 14 16 16 16 14 13 14 11 13 19 19 18 16 16 15 12 4 2 2 1 2 3 4 4 6 4 3 5 5 6 7 5 6 6 3 5 5 5 6 5 5 6 6 6 5 11 13 12 14
6 6 7 8 7 8 9 10 10 7 6 4 6 8 10 11 10 9 10 11 13 14 15 15 14 14 17 17 16 17 17 16 16 12 12 12 13 15 16 16 17 16 14 13 7 7 14 14 12 9 9 9 8 3 6 8 8 7 6 7 4 4 5 6 6 5 2 5 4 4 1 5 4 5 6 6 6 7 6 5 5 5 14 13 17
5 6 6 7 7 5 6 8 8 8 8 8 8 9 9 9 8 7 9 10 12 13 13 13 14 14 14 14 14 15 16 17 17 14 9 10 12 13 15 15 15 16 14 12 10 5 6 5 4 5 7 8 6 6 6 7 9 9 7 6 4 5 5 7 7 3 2 2 2 2 2 3 3 4 4 4 6 6 5 4 5 6 6 6 5
Wind_Direction
223 180 201 178 174 158 174 158 179 190 174 197 193 164 168 164 153 161 154 143 131 129 133 127 127 120 110 95 93 94 89 89 86 84 90 96 93 84 80 76 75 74 79 81 81 81 88 92 96 93 89 88 86 87 88 85 83 79 79 79 79 80 80 79 80 79 74 72 70 71 73 76 76 75 74 72 72 69 62 61 61 58 55 52 48
203 226 175 185 180 162 170 149 168 191 179 194 191 185 173 167 167 164 158 152 143 134 143 140 132 138 109 110 106 99 100 95 100 103 105 101 95 93 83 79 75 74 76 78 82 85 84 91 98 100 97 94 94 93 90 90 86 83 82 84 85 84 85 85 80 77 78 77 76 78 77 75 76 74 71 72 72 64 56 52 50 47 43 46 45
229 215 220 193 192 194 176 161 156 177 207 185 194 190 185 181 170 170 161 157 146 146 160 150 136 134 120 105 100 96 93 101 92 91 87 85 101 105 97 86 80 79 78 79 86 94 97 100 97 99 98 100 102 101 99 98 92 90 90 89 89 88 88 84 81 82 82 82 81 80 79 76 71 70 68 67 65 65 60 57 55 58 56 46 39
225 227 222 209 195 202 182 190 146 170 210 197 187 197 189 184 176 172 163 160 152 164 154 153 157 133 141 116 111 115 106 98 91 80 78 84 94 102 107 103 89 87 88 90 98 100 104 104 105 106 110 106 103 101 107 104 100 97 96 94 90 87 84 88 91 87 82 75 77 73 68 71 71 63 57 57 57 52 50 46 41 34 30 29 23
204 237 224 213 205 204 196 182 181 135 184 215 196 196 193 189 173 176 168 158 166 155 167 154 157 153 139 117 117 109 106 92 91 90 83 85 90 99 92 107 109 97 93 96 97 98 98 95 96 97 95 97 99 107 107 107 106 106 99 96 95 94 91 84 85 90 83 70 62 65 59 54 56 54 52 47 43 43 36 36 37 34 28 25 19
208 199 236 230 205 210 205 191 169 144 131 207 204 193 197 187 182 178 171 173 174 167 174 167 167 160 141 146 135 110 121 112 100 91 78 74 79 75 85 97 114 108 107 99 95 101 102 102 101 103 106 105 107 106 107 109 110 107 104 97 95 94 92 88 81 81 82 74 61 55 51 52 51 49 47 41 38 35 34 30 24 23 19 26 21
224 204 221 235 206 207 210 197 177 183 173 176 217 192 198 194 184 191 173 182 184 174 183 177 168 164 161 165 130 143 104 105 107 102 96 91 85 80 96 96 92 134 133 123 114 102 104 107 104 100 103 106 108 108 112 114 112 109 107 101 94 94 90 87 84 77 75 74 66 54 46 42 41 45 45 42 37 35 21 26 20 4 9 14 20
215 216 226 228 217 207 205 200 176 195 177 160 225 196 199 201 194 194 184 189 185 182 188 178 186 164 168 168 142 149 148 125 114 109 106 116 92 107 98 95 94 86 79 106 108 107 111 110 109 105 100 105 108 113 115 116 112 115 114 110 99 90 87 84 79 71 68 58 49 46 40 35 24 34 29 33 25 27 359 16 12 1 2 359 19
219 221 250 249 235 221 205 193 198 198 169 186 208 206 191 197 203 207 191 190 194 186 188 179 189 174 175 182 162 167 165 164 138 114 105 116 139 125 118 106 113 137 131 125 127 124 119 119 117 113 103 100 106 109 112 113 113 99 104 112 112 102 95 87 75 68 60 55 37 36 33 20 13 17 13 31 12 10 352 15 350 358 359 357 5
229 226 247 258 239 221 208 198 206 199 188 194 204 207 195 197 202 204 199 203 198 191 189 186 190 183 192 181 168 169 166 198 109 162 182 126 127 121 117 138 145 102 106 121 120 132 132 136 137 125 118 112 113 113 110 108 108 107 102 99 100 103 96 87 83 78 69 51 34 23 15 10 359 359 8 19 354 352 1 353 353 1 357 360 357
225 245 247 236 227 215 219 192 209 205 198 201 188 199 200 197 206 198 205 203 210 196 197 189 193 192 196 186 172 176 182 184 172 210 187 142 121 142 143 145 139 135 128 137 138 129 152 159 170 153 131 136 128 124 115 108 96 104 95 86 85 99 106 95 88 78 68 54 27 347 325 339 330 350 353 1 339 342 347 346 343 339 345 341 339
233 244 247 246 236 208 205 196 207 205 201 208 192 187 193 198 202 204 202 207 206 212 193 187 195 195 194 184 185 187 196 187 220 218 161 178 163 178 163 146 158 142 166 133 138 136 142 152 161 141 132 150 155 142 142 133 117 97 96 81 53 33 52 107 103 130 127 102 122 346 1 331 324 333 346 341 334 328 343 332 318 320 323 325 325
246 237 240 237 234 213 195 201 204 209 200 207 199 188 189 197 198 203 209 208 207 206 206 190 198 189 184 196 201 198 221 213 227 231 211 196 168 194 175 165 168 160 171 152 153 150 164 169 169 157 164 146 169 175 178 173 169 154 136 53 350 326 354 36 69 41 348 180 166 228 327 340 321 337 335 322 325 312 303 295 301 305 312 315 314
239 262 246 234 216 205 203 194 204 209 206 201 195 181 184 193 195 204 209 212 211 208 199 198 204 200 189 187 211 200 231 230 239 226 231 212 192 204 183 208 184 172 165 168 180 178 177 167 175 178 164 180 169 167 177 184 172 171 195 234 271 289 298 319 349 360 323 337 333 261 242 276 292 290 293 298 294 299 285 293 296 301 296 306 315
216 220 224 232 221 214 208 191 204 202 202 196 186 184 188 191 193 204 199 204 219 211 199 209 210 201 205 205 201 219 202 227 244 252 225 226 207 214 205 205 200 194 176 192 194 191 192 172 170 179 179 203 187 173 170 175 110 147 211 239 260 271 278 289 294 286 301 301 306 317 318 308 304 294 284 280 278 285 305 297 316 308 303 297 300
241 225 237 198 230 218 211 205 202 212 210 200 198 197 187 195 199 203 204 197 205 199 208 211 234 207 204 211 209 223 223 215 223 219 234 227 220 224 210 216 202 206 193 206 193 195 199 171 191 174 194 206 221 193 203 186 137 184 211 237 242 250 266 271 279 280 283 286 291 297 303 305 309 319 322 319 314 306 312 338 333 335 335 327 306
264 268 261 205 226 228 221 206 209 207 217 205 204 207 200 204 202 206 202 215 206 197 207 210 221 230 246 209 216 219 243 239 184 218 208 222 222 227 217 220 214 203 210 213 206 196 198 193 195 185 195 204 207 213 217 189 179 196 195 205 223 237 249 267 269 278 278 275 280 286 292 298 304 315 322 320 321 326 330 328 333 324 320 317 316
243 232 257 243 210 227 232 224 200 210 222 220 207 207 211 210 201 207 207 215 225 199 206 211 226 231 247 260 282 310 277 219 208 222 180 236 231 220 220 217 225 217 213 218 210 209 195 204 194 203 198 206 209 210 212 208 216 202 228 175 187 227 249 259 269 271 275 280 282 283 288 292 300 314 317 321 324 324 325 326 328 325 316 315 314
247 239 230 238 227 227 221 238 219 215 212 230 218 210 209 212 202 207 214 205 211 222 217 203 202 229 230 235 245 248 261 285 242 263 241 191 234 225 218 217 218 222 222 219 215 213 209 214 204 209 199 205 208 218 211 210 201 231 212 225 209 234 248 257 270 273 274 280 284 287 288 289 299 310 314 318 320 320 320 321 319 318 315 312 312
207 237 226 217 222 223 226 235 246 221 218 216 217 216 219 215 205 212 219 218 203 223 211 216 208 220 223 229 230 242 250 248 253 271 271 254 194 212 233 216 216 220 229 230 221 219 213 213 225 215 208 203 206 213 221 221 214 206 209 211 224 234 242 257 264 270 274 276 281 285 284 285 295 302 310 316 316 315 317 317 317 317 318 315 313
229 222 229 240 216 224 224 229 234 241 223 223 218 216 225 224 194 217 217 219 221 226 232 222 216 224 205 222 234 233 232 232 250 244 252 248 251 215 211 200 223 222 225 236 238 224 221 213 227 236 219 212 213 215 218 221 218 218 221 195 211 226 240 253 263 268 275 276 278 281 280 282 288 298 307 312 313 314 315 315 315 315 316 316 314
205 223 229 225 231 228 224 222 227 236 241 234 221 231 226 228 221 218 220 228 224 232 232 233 229 237 212 220 225 234 244 243 224 235 244 256 269 267 241 197 204 220 210 223 233 238 224 214 219 225 229 222 220 220 221 219 221 219 214 192 209 226 240 251 259 264 270 275 276 274 274 274 281 289 300 305 308 310 311 311 312 312 313 315 313
191 203 222 227 219 234 249 233 225 233 240 241 230 229 222 229 226 221 224 224 225 227 232 239 237 237 237 220 227 227 235 238 236 241 253 255 249 254 263 268 264 244 189 210 229 230 229 222 220 222 224 225 224 224 219 219 218 227 107 168 202 226 240 250 255 261 268 272 271 268 265 271 276 285 295 301 305 307 307 307 308 309 310 309 309
205 206 213 225 210 221 225 248 233 228 230 240 236 228 232 228 228 229 228 228 236 233 233 234 234 239 238 245 240 246 237 241 248 244 246 252 260 268 269 266 250 247 244 161 218 244 229 228 225 228 225 228 224 223 222 220 220 180 181 193 213 231 241 247 253 260 264 265 265 262 262 266 273 281 291 299 302 302 303 305 306 309 307 304 303
213 217 206 214 212 210 219 221 232 225 249 251 235 241 247 245 237 232 234 232 228 232 233 233 236 238 239 240 247 245 247 251 255 263 260 257 259 267 265 268 264 270 256 198 218 214 226 223 230 228 228 222 231 229 220 218 237 164 195 220 194 227 233 246 251 256 260 261 261 260 258 264 270 276 286 295 299 300 302 306 308 306 302 298 295
227 221 228 202 207 208 214 221 227 226 223 238 255 254 245 245 238 239 243 244 245 240 239 240 239 240 243 245 239 243 251 256 256 250 249 246 251 254 265 271 277 270 268 250 228 241 203 220 221 226 223 227 226 231 220 221 227 144 191 237 195 207 225 236 245 254 255 258 256 254 258 263 266 273 283 292 298 301 303 305 304 297 296 296 293
231 220 215 220 211 217 210 215 218 227 227 232 235 239 249 253 250 248 248 252 253 250 248 246 242 236 234 240 244 246 245 242 241 247 246 247 246 247 252 259 249 246 260 256 246 218 258 200 210 214 229 222 229 233 223 216 212 140 166 216 242 193 210 219 244 247 254 255 252 253 258 262 264 270 279 289 295 301 301 297 293 294 294 294 295
232 225 208 221 209 219 210 218 216 217 221 224 229 236 225 235 247 244 243 239 244 245 247 245 247 246 240 236 243 246 233 235 242 232 248 250 248 250 247 256 268 267 235 246 253 256 207 236 182 221 227 221 219 222 221 223 203 139 178 227 231 209 187 204 220 238 245 248 249 252 256 259 260 265 276 287 293 294 291 287 287 292 294 295 296
229 222 223 211 222 223 232 219 209 218 220 221 226 228 225 233 237 239 246 243 239 242 238 243 241 239 239 235 236 241 245 238 240 239 226 242 245 243 245 241 251 263 274 270 251 256 197 208 260 178 212 218 214 210 205 220 170 158 207 222 232 245 184 193 208 226 236 240 245 248 253 254 257 261 273 283 286 283 281 282 287 291 296 297 294
231 230 221 214 213 216 228 226 219 217 219 220 225 220 218 223 234 242 235 236 236 236 236 236 240 241 237 239 232 238 239 233 220 227 227 227 238 239 235 240 228 249 265 274 278 278 271 195 250 245 176 220 212 213 212 229 137 181 226 238 234 233 171 185 198 218 227 233 239 247 250 253 255 260 269 278 280 278 277 281 287 292 295 294 296
234 231 227 227 217 217 220 227 221 218 216 218 219 223 220 219 225 233 229 221 230 231 229 233 234 235 238 237 237 237 235 228 232 221 223 219 223 229 230 233 235 238 256 262 269 257 258 271 243 257 233 210 221 216 220 236 159 194 229 243 244 223 155 193 197 211 222 223 232 234 243 247 252 258 265 273 276 275 274 278 286 290 290 290 289
236 234 233 235 229 226 220 223 227 221 219 215 215 216 215 225 223 223 225 220 225 226 228 217 224 228 232 235 232 233 225 224 224 226 223 225 227 236 227 221 227 226 234 247 254 266 219 246 256 239 239 227 221 223 230 227 173 178 237 235 235 135 201 236 197 209 212 220 219 228 228 236 243 249 259 266 270 271 273 276 279 282 282 277 274
235 233 234 235 234 231 234 229 232 227 223 219 214 217 215 217 222 229 227 222 226 228 228 229 225 229 235 238 236 229 229 232 233 222 226 225 219 224 235 228 224 219 220 228 244 253 255 229 248 254 239 231 229 228 237 233 229 206 213 241 243 237 235 239 238 197 206 208 216 217 221 224 230 242 250 258 263 268 270 265 262 262 269 272 274
232 235 235 234 235 234 237 238 230 234 231 224 216 215 221 221 220 220 228 230 232 234 229 232 228 227 229 238 242 237 228 232 233 236 223 227 225 219 221 227 222 224 217 230 235 252 262 244 232 240 244 218 243 229 231 237 237 244 241 230 227 235 241 242 244 225 192 202 207 208 215 213 218 228 236 242 249 249 250 252 250 253 262 267 270
231 236 239 237 236 234 235 237 240 236 236 234 221 218 221 225 225 222 222 226 228 232 230 231 233 224 224 228 235 236 228 229 232 240 244 236 232 231 228 224 231 228 223 222 238 246 250 253 241 239 238 228 230 243 236 231 237 243 244 243 241 236 238 235 238 261 175 197 196 205 209 207 214 223 230 236 242 245 250 250 249 253 257 261 261
237 233 237 241 236 235 238 238 238 238 236 233 226 222 225 227 230 229 223 221 224 226 233 236 233 232 226 226 230 228 226 227 229 231 234 235 235 240 240 232 228 231 232 229 226 243 253 261 250 250 235 229 232 239 251 249 241 234 239 250 246 249 250 242 236 247 182 188 192 201 203 206 213 221 230 236 238 244 249 248 250 253 257 259 261
237 240 234 235 241 239 236 236 238 239 238 236 231 226 226 228 231 233 232 228 225 228 232 236 239 240 235 229 230 226 220 226 226 228 229 229 230 232 236 237 234 229 229 228 232 230 241 247 252 252 254 248 242 243 242 245 237 237 244 245 252 253 247 241 247 238 161 181 189 200 201 207 213 221 230 233 236 243 246 247 247 250 252 254 254
241 239 243 242 240 239 239 237 238 241 239 238 239 237 233 230 230 234 236 236 233 233 232 234 237 235 237 236 232 230 226 224 228 227 230 230 228 232 232 234 238 231 228 232 229 235 238 244 248 256 248 244 250 245 247 246 249 253 250 247 241 242 248 251 242 234 236 197 202 201 208 216 216 222 226 229 234 241 246 245 247 246 245 248 251
238 239 242 245 244 245 244 241 239 240 242 241 239 240 243 239 234 233 234 234 234 237 240 239 237 237 237 236 236 232 232 231 231 231 229 230 231 233 233 235 236 241 235 232 235 233 235 243 245 247 255 247 238 249 242 239 241 241 247 251 253 249 243 237 236 241 236 229 210 201 234 253 205 211 215 225 231 237 242 244 239 242 247 246 249
236 237 240 245 244 245 245 245 243 242 242 243 243 242 241 242 241 239 238 237 239 241 241 242 243 242 239 240 239 236 234 233 233 233 232 233 232 235 234 233 234 233 235 237 235 239 240 240 245 251 249 254 247 242 246 242 242 237 234 243 249 248 246 235 237 240 242 239 238 212 207 231 236 227 224 220 224 233 237 241 239 243 245 246 244
240 241 238 244 249 247 245 244 243 240 242 244 244 242 240 241 243 243 243 244 243 246 248 247 247 246 246 243 241 242 236 234 234 234 235 235 236 238 236 232 233 232 233 237 239 239 243 244 248 252 253 254 251 246 236 226 225 230 226 229 242 246 248 252 245 234 238 245 242 247 242 209 223 226 218 227 226 219 227 229 244 229 228 236 235
243 240 242 245 246 250 250 249 247 244 244 245 244 245 241 242 251 250 249 249 249 250 250 252 252 251 250 251 248 240 235 229 227 228 231 234 236 244 250 241 235 236 237 236 240 245 240 229 235 245 250 248 248 241 241 236 233 228 233 237 242 238 239 250 254 255 237 235 250 248 242 228 232 247 251 250 256 229 241 218 225 232 210 216 222
237 247 248 245 244 244 246 250 251 249 248 247 229 203 206 221 241 254 254 252 251 252 252 250 251 252 250 251 254 242 225 225 226 225 226 227 229 234 243 250 255 253 247 245 250 246 236 232 241 242 243 250 249 250 247 249 243 233 228 236 243 241 241 242 246 238 210 221 235 256 258 241 223 239 246 253 247 244 230 242 137 147 153 189 213
232 228 256 255 254 252 251 251 252 251 251 245 215 198 205 213 219 238 250 252 251 252 253 254 254 252 253 255 253 253 245 235 232 224 222 224 227 230 234 237 239 243 248 254 256 251 245 245 244 240 241 240 249 248 250 251 252 204 218 227 226 237 238 234 239 246 236 174 209 246 264 265 227 236 250 255 253 249 255 102 144 175 189 214 230
213 235 242 250 257 259 257 254 252 251 252 245 215 207 208 211 216 222 243 249 251 254 254 255 256 257 259 256 255 253 257 230 218 233 234 220 217 225 228 232 237 236 237 241 246 248 252 251 255 259 254 252 251 250 251 259 162 194 213 222 231 234 235 234 230 247 188 178 242 258 271 273 240 228 246 250 246 243 238 198 197 200 215 218 231
229 225 222 239 248 250 252 254 261 262 260 268 233 215 213 215 217 216 237 243 249 254 256 257 258 258 257 258 259 257 255 249 239 232 232 236 233 218 222 229 232 231 228 230 234 236 237 242 248 254 258 257 258 260 252 135 175 210 223 241 234 229 219 220 216 224 228 159 218 273 277 272 253 239 252 266 251 261 254 233 188 208 215 220 230
250 237 228 237 239 243 252 259 263 266 265 264 252 222 221 219 221 215 239 247 253 256 256 258 260 259 260 258 257 258 259 258 255 246 241 239 239 243 242 235 226 229 226 221 224 226 225 229 236 244 251 253 257 258 230 189 199 216 227 245 254 246 243 34 42 145 251 197 206 235 260 266 273 249 258 277 307 273 273 199 180 196 206 218 228
260 255 257 253 249 238 241 251 256 260 261 258 251 236 224 223 220 218 235 243 249 255 257 260 260 260 259 258 256 258 258 258 255 237 229 242 251 253 253 254 255 246 245 237 212 205 215 221 226 233 241 247 254 261 237 217 224 223 182 77 344 240 229 237 245 232 228 219 204 214 248 274 287 288 296 317 298 280 269 290 184 199 201 213 223
259 265 259 257 253 243 244 251 260 265 269 281 268 247 234 227 217 234 241 249 254 251 253 253 255 257 258 258 258 259 259 258 256 240 220 221 246 254 259 262 261 261 261 260 205 200 206 216 226 236 246 257 264 166 109 50 200 192 182 200 216 186 178 239 251 238 242 195 164 205 245 283 307 315 304 296 299 287 281 268 274 191 199 208 223
285 272 261 260 252 249 246 251 254 262 270 305 339 291 256 239 223 236 254 262 261 259 258 256 256 258 256 254 255 257 259 261 264 253 215 206 240 252 260 263 267 266 266 265 263 203 207 210 223 252 279 286 287 260 211 205 185 187 194 218 197 163 210 221 247 245 255 119 163 151 242 259 316 302 286 291 286 275 245 245 249 211 190 214 222
284 280 281 291 286 262 247 260 258 258 263 260 248 269 281 266 242 246 252 264 265 262 264 263 259 256 258 255 247 241 250 261 264 262 225 199 243 253 261 270 269 269 269 274 272 197 184 197 214 226 250 245 250 251 236 190 187 190 199 201 186 214 219 222 228 236 256 100 71 104 155 268 265 281 309 308 300 298 264 246 249 266 265 280 255